Home > Weather > Missoula > Past weeks

Flag for USA Past Weather in Missoula, Montana, USA — Yesterday and Last 2 Weeks

Now
91 °F

Sunny.


Feels Like: 87 °F
Forecast: 53 / 90 °F
Wind: 6 mph from North

Location: Missoula International Airport

Current Time: Jun 29, 2016 at 4:01:10 PM

Latest Report: Jun 29, 2016 at 2:53 PM


Visibility: 10 mi

Pressure: 29.98 "Hg (26.89 "Hg at 971m altitude)

Humidity: 19%

Dew Point: 43 °F

Location of MissoulaLocation

Past Weather in Missoula — Graph

°F

Missoula Temperature Yesterday

Maximum temperature yesterday: 92 °F (at 3:53 PM)
Minimum temperature yesterday: 62 °F (at 12:53 AM)
Average temperature yesterday: 77 °F

High & Low Weather Summary for the Past Weeks

 TemperatureHumidityPressure
High92 °F (Jun 27, 4:53 PM)100% (Jun 16, 5:53 AM)30.40 "Hg (Jun 16, 5:53 AM)
Low35 °F (Jun 15, 4:53 AM)12% (Jun 22, 6:53 PM)29.79 "Hg (Jun 16, 1:53 AM)
Average61 °F52%30.08 "Hg
* Reported Jun 14 2:53 PM — Jun 29 2:53 PM, Missoula, Weather by CustomWeather, © 2016

Note: Actual official high and low records may vary slightly from our data, if they occured in-between our weather recording intervals... More about our weather records

Advertising

Missoula Weather History for the Previous 24 Hours

Scroll right to see more
 ConditionsComfort  
Time TempWeatherWind HumidityBarometerVisibility
2:53 PM
Wed, Jun 29
91 °FSunny.6 mph19%29.98 "Hg10 mi
1:53 PM89 °FSunny.5 mph19%30.00 "Hg10 mi
12:53 PM86 °FSunny.8 mph24%30.02 "Hg10 mi
11:53 AM83 °FSunny.5 mph30%30.05 "Hg10 mi
10:53 AM80 °FSunny.3 mph34%30.06 "Hg10 mi
9:53 AM75 °FSunny.6 mph39%30.08 "Hg10 mi
8:53 AM68 °FSunny.6 mph47%30.08 "Hg10 mi
7:53 AM62 °FSunny.No wind60%30.09 "Hg10 mi
6:53 AM59 °FSunny.No wind67%30.09 "Hg10 mi
5:53 AM55 °FClear.No wind69%30.07 "Hg10 mi
4:53 AM56 °FClear.No wind67%30.05 "Hg10 mi
3:53 AM58 °FClear.6 mph62%30.04 "Hg10 mi
2:53 AM58 °FClear.No wind62%30.04 "Hg10 mi
1:53 AM60 °FClear.No wind58%30.03 "Hg10 mi
12:53 AM66 °FClear.No wind45%30.02 "Hg10 mi
11:53 PM
Tue, Jun 28
66 °FClear.6 mph45%30.01 "Hg10 mi
10:53 PM71 °FClear.7 mph38%30.01 "Hg10 mi
9:53 PM76 °FSunny.9 mph31%29.99 "Hg10 mi
8:53 PM86 °FSunny.10 mph21%29.96 "Hg10 mi
7:53 PM90 °FSunny.5 mph18%29.95 "Hg10 mi
6:53 PM91 °FScattered clouds.5 mph18%29.95 "Hg10 mi
5:53 PM89 °FScattered clouds.12 mph21%29.97 "Hg10 mi
4:53 PM90 °FSunny.No wind19%29.98 "Hg10 mi
Weather by CustomWeather, © 2016

See weather overviewHow to use our weather pages